Weather History for KISW - October, 2012

Change the Weather History Date:

Wednesday, October 24, 2012

  Actual Average Record
Temperature  
Mean Temperature 66 °F -  
Max Temperature 71 °F 55 °F 77 °F (1963)
Min Temperature 60 °F 35 °F 13 °F (1981)
Growing Degree Days 16 (Base 50)    
Moisture  
Dew Point 62 °F    
Average Humidity 90    
Maximum Humidity 100    
Minimum Humidity 78    
Precipitation  
Precipitation 0.00 in - - ()
Sea Level Pressure  
Sea Level Pressure 29.82 in    
Wind  
Wind Speed 3 mph (SSE)    
Max Wind Speed 8 mph    
Max Gust Speed -    
Visibility 5 miles    
Events Fog    
Averages and records for this station are not official NWS values.
T = Trace of Precipitation, MM = Missing Value Source: NWS Daily Summary

Daily Weather History Graph

Daily Weather History Graph

Search for Another Location

Airport or City:

Trip Planner

Search our weather history database for the weather conditions in past years. The results will help you decide how hot, cold, wet, or windy it might be!

Date:

Astronomy

Oct. 24, 2012 Rise Set
Actual Time 7:26 AM CDT 5:59 PM CDT
Civil Twilight 6:56 AM CDT 6:29 PM CDT
Nautical Twilight 6:22 AM CDT 7:03 PM CDT
Astronomical Twilight 5:49 AM CDT 7:36 PM CDT
Moon 3:24 PM CDT (10/24) 2:10 AM CDT (10/24)
Length of Visible Light 11h 32m
Length of Day
10h 33m
Waxing Gibbous, 76% of the Moon is Illuminated
Oct 24
Waxing Gibbous
Oct 29
Full
Nov 6
Last Quarter
Nov 13
New
Nov 20
First Quarter

Hourly Weather History & Observations

Time (CDT) Temp. Dew Point Humidity Pressure Visibility Wind Dir Wind Speed Gust Speed Precip Events Conditions
12:54 AM 63.0 °F 61.0 °F 93% 29.86 in 4.0 mi Calm Calm - N/A   Overcast
1:03 AM 62.6 °F 60.8 °F 94% 29.86 in 3.0 mi SE 3.5 mph - N/A   Overcast
1:23 AM 62.6 °F 60.8 °F 94% 29.86 in 3.0 mi SE 3.5 mph - N/A   Overcast
1:54 AM 62.1 °F 61.0 °F 96% 29.85 in 3.0 mi Calm Calm - N/A   Overcast
2:36 AM 62.6 °F 60.8 °F 94% 29.86 in 3.0 mi Calm Calm - N/A   Overcast
2:54 AM 62.1 °F 60.1 °F 93% 29.86 in 2.5 mi Calm Calm - N/A   Overcast
3:27 AM 62.6 °F 60.8 °F 94% 29.85 in 2.5 mi Calm Calm - N/A   Overcast
3:54 AM 62.1 °F 61.0 °F 96% 29.86 in 3.0 mi SE 3.5 mph - N/A   Overcast
4:54 AM 63.0 °F 61.0 °F 93% 29.85 in 4.0 mi SSE 3.5 mph - N/A   Overcast
5:31 AM 62.6 °F 60.8 °F 94% 29.85 in 4.0 mi SE 3.5 mph - N/A   Overcast
5:44 AM 62.6 °F 60.8 °F 94% 29.85 in 3.0 mi Calm Calm - N/A   Overcast
5:49 AM 62.6 °F 60.8 °F 94% 29.86 in 2.5 mi Calm Calm - N/A   Overcast
5:54 AM 62.1 °F 60.1 °F 93% 29.86 in 2.5 mi Calm Calm - N/A   Overcast
6:23 AM 60.8 °F 59.0 °F 94% 29.86 in 1.5 mi SE 3.5 mph - N/A   Overcast
6:34 AM 60.8 °F 60.8 °F 100% 29.87 in 2.5 mi Calm Calm - N/A   Overcast
6:42 AM 60.8 °F 60.8 °F 100% 29.87 in 1.8 mi Calm Calm - N/A   Overcast
6:54 AM 61.0 °F 60.1 °F 97% 29.87 in 1.0 mi SSE 3.5 mph - N/A   Overcast
7:04 AM 60.8 °F 60.8 °F 100% 29.87 in 0.8 mi SSE 4.6 mph - N/A   Overcast
7:54 AM 61.0 °F 60.1 °F 97% 29.88 in 0.5 mi SSE 3.5 mph - N/A Fog Fog
8:54 AM 62.1 °F 61.0 °F 96% 29.88 in 0.5 mi SSE 4.6 mph - N/A Fog Fog
9:54 AM 62.1 °F 61.0 °F 96% 29.88 in 0.5 mi SSE 3.5 mph - N/A Fog Fog
10:11 AM 62.6 °F 60.8 °F 94% 29.87 in 1.0 mi ESE 4.6 mph - N/A   Overcast
10:20 AM 62.6 °F 62.6 °F 100% 29.87 in 1.5 mi SE 4.6 mph - N/A   Overcast
10:32 AM 62.6 °F 60.8 °F 94% 29.87 in 2.0 mi SE 3.5 mph - N/A   Overcast
10:54 AM 63.0 °F 62.1 °F 97% 29.86 in 3.0 mi SSE 3.5 mph - N/A   Overcast
11:05 AM 62.6 °F 62.6 °F 100% 29.86 in 4.0 mi South 5.8 mph - N/A   Overcast
11:54 AM 66.0 °F 62.1 °F 87% 29.85 in 5.0 mi South 4.6 mph - N/A   Overcast
12:54 PM 66.9 °F 62.1 °F 84% 29.83 in 5.0 mi ESE 6.9 mph - N/A   Haze
1:54 PM 68.0 °F 63.0 °F 84% 29.81 in 5.0 mi SSE 6.9 mph - N/A   Haze
2:54 PM 69.1 °F 63.0 °F 81% 29.79 in 7.0 mi SE 5.8 mph - N/A   Overcast
3:15 PM 69.8 °F 64.4 °F 83% 29.79 in 7.0 mi ESE 8.1 mph - N/A   Overcast
4:54 PM 71.1 °F 64.0 °F 78% 29.77 in 9.0 mi SE 4.6 mph - N/A   Overcast
5:54 PM 70.0 °F 64.0 °F 81% 29.77 in 9.0 mi Calm Calm - N/A   Overcast
6:23 PM 69.8 °F 64.4 °F 83% 29.77 in 9.0 mi ESE 4.6 mph - N/A   Overcast
6:54 PM 70.0 °F 64.0 °F 81% 29.75 in 10.0 mi SE 4.6 mph - N/A   Overcast
7:54 PM 70.0 °F 64.0 °F 81% 29.74 in 10.0 mi SSE 5.8 mph - N/A   Scattered Clouds
8:54 PM 70.0 °F 63.0 °F 78% 29.73 in 10.0 mi SE 8.1 mph - N/A   Mostly Cloudy
9:54 PM 70.0 °F 63.0 °F 78% 29.72 in 10.0 mi South 8.1 mph - N/A   Overcast
10:23 PM 69.8 °F 62.6 °F 78% 29.72 in 10.0 mi South 6.9 mph - N/A   Overcast
10:54 PM 68.0 °F 63.0 °F 84% 29.71 in 10.0 mi South 6.9 mph - N/A   Mostly Cloudy
11:12 PM 68.0 °F 62.6 °F 83% 29.72 in 10.0 mi South 5.8 mph - N/A   Scattered Clouds
11:54 PM 68.0 °F 63.0 °F 84% 29.70 in 10.0 mi South 4.6 mph - N/A   Mostly Cloudy